OpenBCM V1.08-5-g2f4a (Linux)

Packet Radio Mailbox

IZ3LSV

[San Dona' di P. JN]

 Login: GUEST





  
I0OJJ  > KEPS     23.09.25 18:36l 313 Lines 14851 Bytes #160 (0) @ AMSAT
BID : ORB25265.1
Read: GUEST
Subj: 2Line Orbital Elements 25265.AMSAT
Path: IZ3LSV<ED1ZAC<GB7CIP<VK2RZ<IR0AAB<I0OJJ
Sent: 250922/0025z @:I0OJJ.ITA.EU [Rome] obcm1.08-10-g596e
From: I0OJJ @ I0OJJ.ITA.EU (Gustavo)
To:   KEPS @ AMSAT
X-Info: This message was generated automatically


QST de W1STR

AMSAT Orbital Elements for Amateur Satellites in TLE Format
From Orbital Analysis Office
New England Sci-Tech STEM Education Center
Natick MA September 22, 2025
To all radio amateurs


These element sets describe the orbits of various satellites 
in use by the amateur radio community. For details see:
www.amsat.org/keplerian-elements-formats/

A daily update of element sets is available at:
www.amsat.org/tle/daily-bulletin.txt
or without bulletin text:
www.amsat.org/tle/dailytle.txt


AO-07
1 07530U 74089B   25264.55664097 -.00000028  00000-0  11340-3 0  9997
2 07530 101.9986 269.9427 0011909 284.6220 197.7225 12.53691722326859
UO-11
1 14781U 84021B   25264.45681066  .00002277  00000-0  24356-3 0  9992
2 14781  97.7669 228.8502 0007846   5.7178 354.4128 14.89692288217102
AO-27
1 22825U 93061C   25264.41355799  .00000168  00000-0  81106-4 0  9995
2 22825  98.7266 326.4368 0008761 161.8556 198.2940 14.30830739668567
FO-29
1 24278U 96046B   25264.55854098  .00000019  00000-0  52189-4 0  9990
2 24278  98.5573 144.6921 0350898  73.2001 290.7319 13.53253980436839
NOAA-15
1 25338U 98030A   25264.58461699  .00000223  00000-0  10919-3 0  9998
2 25338  98.5314 287.1943 0011225  58.4557 301.7719 14.27019053422987
GO-32
1 25397U 98043D   25264.51847142  .00000134  00000-0  78216-4 0  9997
2 25397  98.9827 245.8631 0000238 286.3605  73.7547 14.24340542413081
ISS
1 25544U 98067A   25264.50666189  .00017816  00000-0  31405-3 0  9999
2 25544  51.6340 189.6600 0004358   3.8529 356.2493 15.50479098530107
NO-44
1 26931U 01043C   25264.59021092  .00000291  00000-0  14000-3 0  9996
2 26931  67.0500 218.9067 0007091 274.9871  85.0421 14.31782203251996
SO-50
1 27607U 02058C   25264.42154254  .00002907  00000-0  37057-3 0  9996
2 27607  64.5521 239.9259 0066807 312.2982  47.2472 14.81912727224613
CO-55
1 27844U 03031E   25264.52837986  .00000453  00000-0  21600-3 0  9993
2 27844  98.6790 271.4777 0008528 242.8946 117.1364 14.24072687153439
CO-57
1 27848U 03031J   25264.52569806  .00000383  00000-0  18795-3 0  9993
2 27848  98.6821 271.4015 0008341 262.8258  97.1972 14.23396595153151
RS-22
1 27939U 03042A   25264.64192341  .00001659  00000-0  26879-3 0  9994
2 27939  98.3371  76.6834 0012191  44.5828  27.1646 14.72603067176019
CO-58
1 28895U 05043F   25264.37524864  .00002341  00000-0  38633-3 0  9998
2 28895  98.2646  50.1300 0013981 342.3648  17.7071 14.71364940 62202
CO-65
1 32785U 08021C   25264.59764394  .00008295  00000-0  58072-3 0  9991
2 32785  97.7973 236.6629 0008355 210.1543 149.9203 15.05486441944722
CO-66
1 32791U 08021J   25264.46403072  .00018130  00000-0  81275-3 0  9997
2 32791  97.7371 247.0527 0005036 135.9430 224.2207 15.21274494946270
RS-30
1 32953U 08025A   25264.54177653  .00000026  00000-0  11760-3 0  9990
2 32953  82.5065 162.5431 0018786 175.5676 184.5574 12.43168121786317
NOAA-19
1 33591U 09005A   25264.54983141  .00000161  00000-0  10951-3 0  9996
2 33591  98.9879 329.7922 0014726  72.0173 288.2602 14.13409000856534
SRMSAT
1 37841U 11058D   25264.30363866  .00000485  00000-0  11985-3 0  9996
2 37841  19.9713 246.8607 0011945 125.4447 274.5939 14.11466560719780
ZACUBE-1
1 39417U 13066B   25264.45301172  .00007324  00000-0  61872-3 0  9995
2 39417  97.7910 221.0298 0045408  65.6410 294.9542 14.97586795640451
Delfi-N3xt
1 39428U 13066N   25264.59140949  .00013861  00000-0  13599-2 0  9990
2 39428  97.8293 181.1293 0083622  19.1560 341.2770 14.89695115634550
GOMX-1
1 39430U 13066Q   25264.58066225  .00002969  00000-0  46293-3 0  9991
2 39430  97.6708 116.8327 0130591 219.0124 140.1608 14.68025629630488
LO-74
1 39440U 13066AA  25264.41248507  .00004735  00000-0  47176-3 0  9993
2 39440  97.8565 208.3375 0060409 195.5765 164.3596 14.90717371636905
AO-73
1 39444U 13066AE  25264.47410207  .00011845  00000-0  85026-3 0  9997
2 39444  97.7927 226.9310 0042455  38.5151 321.9090 15.03735667639198
DTUSAT-2
1 40030U 14033W   25264.47306736  .00010565  00000-0  65945-3 0  9992
2 40030  98.0664 241.4733 0011074  73.3357 286.9085 15.09648512612061
EO-80
1 40032U 14033Y   25264.48785094  .00011822  00000-0  73577-3 0  9990
2 40032  98.0540 240.9987 0008960  23.2507 336.9124 15.09740811612045
LILACSAT-2
1 40908U 15049K   25264.63684137  .00016565  00000-0  39850-3 0  9998
2 40908  97.5018 287.6446 0010198 137.4283 222.7756 15.41324158554242
IO-86
1 40931U 15052B   25151.18580175  .00001241  00000-0  78118-4 0  9996
2 40931   6.0006  24.0987 0012733 338.8432  21.1169 14.78805930523159
Horyu-4
1 41340U 16012D   25264.37232964  .00037183  00000-0  84353-3 0  9995
2 41340  30.9957 151.6614 0005423  49.6492 310.4628 15.41811461528796
Lapan A3
1 41603U 16040E   25264.60782396  .00004973  00000-0  17056-3 0  9990
2 41603  97.1417 265.2038 0008827 254.9191 105.1074 15.30574062513692
CAS-2T
1 41847U 16066G   25264.43985210  .00001895  00000-0  27826-3 0  9995
2 41847  98.4124 337.9762 0344444 224.0762 133.2500 14.43734171466002
CAS-4B
1 42759U 17034B   25264.55535409  .00289520  37483-4  10874-2 0  9994
2 42759  42.9998  54.2878 0024179 310.5584  49.3185 15.86595146458965
CAS-4A
1 42761U 17034D   25264.57608166  .00358626  55964-4  10815-2 0  9993
2 42761  43.0024  49.3885 0024464 317.1226  42.7741 15.90868596459004
TechnoSat
1 42829U 17042E   25264.50325298  .00004441  00000-0  33885-3 0  9995
2 42829  97.4005  68.3408 0016223 293.7063  66.2460 15.02391332446327
AO-91
1 43017U 17073E   25264.60888045  .00010618  00000-0  52503-3 0  9995
2 43017  97.5066 132.7765 0167992 171.1431 189.2827 15.06402889424867
S-Net D
1 43186U 18014G   25264.24943673  .00006493  00000-0  37305-3 0  9996
2 43186  97.5503 166.0952 0007386 218.4191 141.6515 15.12825903418048
S-Net B
1 43187U 18014H   25264.45465181  .00006963  00000-0  39990-3 0  9997
2 43187  97.5510 166.2752 0008214 212.9393 147.1327 15.12807595418073
S-Net A
1 43188U 18014J   25264.44788358  .00006772  00000-0  38872-3 0  9997
2 43188  97.5517 166.4326 0008090 213.7368 146.3349 15.12834019418079
S-Net C
1 43189U 18014K   25264.45731000  .00006930  00000-0  39794-3 0  9991
2 43189  97.5533 166.4738 0009774 207.0105 153.0618 15.12803058416622
Ten-Koh
1 43677U 18084G   25264.47205127  .00003374  00000-0  26899-3 0  9999
2 43677  98.0792  80.8478 0006218 269.2932  90.7578 15.01046648375825
PO-101
1 43678U 18084H   25264.62057476  .00003035  00000-0  25706-3 0  9999
2 43678  98.1068  84.7883 0008244 303.7536  56.2899 14.98784433375965
QO-100
1 43700U 18090A   25264.58459457  .00000134  00000-0  00000-0 0  9996
2 43700   0.0168 179.2029 0001279  31.5728  26.1892  1.00271037 24988
MinXSS-2
1 43758U 18099A   25264.44398772  .00024763  00000-0  87721-3 0  9997
2 43758  97.4922 330.9834 0012125 146.1342 214.0674 15.29036421372823
AO-95
1 43770U 18099N   25264.13565827  .00011464  00000-0  54903-3 0  9994
2 43770  97.4812 321.1395 0009880 203.4050 156.6736 15.19065098372265
SNUSat 2
1 43782U 18099AA  25264.61350857  .00011036  00000-0  57510-3 0  9997
2 43782  97.4494 317.4924 0012760 147.5083 212.6938 15.16084183372254
SnugLite
1 43784U 18099AC  25264.40624753  .00012491  00000-0  59208-3 0  9997
2 43784  97.4306 317.0836 0004647 137.6665 222.4929 15.19430633372399
ITASat 1
1 43786U 18099AE  25264.14569013  .00008348  00000-0  45972-3 0  9996
2 43786  97.4467 316.2254 0013520 201.5772 158.4891 15.14196785372123
EAGLET 1
1 43790U 18099AJ  25264.09804508  .00006269  00000-0  39019-3 0  9991
2 43790  97.4660 315.7673 0011741 187.0849 173.0216 15.09890092371688
ESEO
1 43792U 18099AL  25264.60749471  .00003178  00000-0  24030-3 0  9990
2 43792  97.4370 308.1033 0012651 165.4946 194.6645 15.02978692371448
JO-97
1 43803U 18099AX  25264.14074091  .00014943  00000-0  63398-3 0  9993
2 43803  97.4556 322.3887 0008486 136.7241 223.4664 15.23169050372527
Suomi 100
1 43804U 18099AY  25264.39949068  .00013342  00000-0  61483-3 0  9991
2 43804  97.4620 321.6193 0013053 141.9776 218.2383 15.20324274372460
ISAT
1 43879U 18111D   25264.29802396  .00030550  00000-0  92284-3 0  9992
2 43879  97.5879 181.2234 0008060 168.2898 191.8533 15.34164685369578
UWE-4
1 43880U 18111E   25264.31941202  .00022141  00000-0  78451-3 0  9994
2 43880  97.5821 178.9269 0010175 191.5124 168.5885 15.29075865369463
Sparrow
1 43881U 18111F   25264.51386188  .00037673  00000-0  10818-2 0  9991
2 43881  97.6043 184.7602 0004517 197.0467 163.0625 15.35740072369717
Prox-1
1 44339U 19036A   25264.25120520  .00017126  00000-0  20687-2 0  9990
2 44339  23.9963  99.7869 0006457 172.6928 187.3664 14.82103140333404
Taurus 1
1 44530U 19059C   25264.64753789  .00011087  00000-0  19787-2 0  9999
2 44530  98.6181  49.1325 0009402  76.0135 284.2113 14.67120303319193
Duchifat 3
1 44854U 19089C   25264.50674646  .00107782  00000-0  13761-2 0  9994
2 44854  36.9389  49.6917 0006140  46.5818 313.5453 15.57987367319166
TO-108
1 44881U 19093C   25264.54820855  .00001280  00000-0  15315-3 0  9992
2 44881  97.7847 337.9948 0012411 247.9903 111.9994 14.85803660311511
FloripaSat 1
1 44885U 19093G   25264.55060858  .00007893  00000-0  64567-3 0  9995
2 44885  97.8162 352.4243 0008923 217.3210 142.7394 14.99583423312324
RS-44
1 44909U 19096E   25264.45650963  .00000048  00000-0  14296-3 0  9995
2 44909  82.5245 158.2842 0218416  52.8272 309.2553 12.79743697267975
UPMSat 2
1 46276U 20061E   25264.19943687  .00315583  40273-4  88235-3 0  9994
2 46276  97.2284 343.3932 0003581 225.2722 134.8262 15.93634023281806
SALSAT
1 46495U 20068K   25264.52815586  .00010349  00000-0  42676-3 0  9998
2 46495  97.8710 247.5231 0011932 151.5754 208.6136 15.24209818274357
